Torna al catalogo

KOSMOS-2578

AttivoMilitareSSO
NORAD 61180·PAYLOAD·🇷🇺 Russia
Questo nome del satellite non è ancora stato confermato da fonti ufficiali.

Lanciato Sep 17, 2024 da Plesetsk Cosmodrome

Loading…

Prossimi Passaggi (prossime 24 ore)

TLE

AggiornatoSource: Space-Track

Epoca: Sep 14, 2026, 05:06 UTC

1 61180U 24166B   26257.21270046  .00019551  00000-0  13029-3 0  9998
2 61180  96.6629 145.0050 0000847  24.2776 335.8531 15.75412227114750

Traccia KOSMOS-2578 in tempo reale con AllMySat

Download on the App Store